GW1320 Weather Reports


time (UTC)temp
F
wind
direction
speed
knots
gust
knots
rain 1hr
in
rain 24hr
in
rain mn
in
humidity
%
barometer
mb
20260506214548 53 360 9.6 12.2 0.00 1.16 0.27 62 1012.5
20260506213045 54 332 7.0 10.4 0.00 1.16 0.27 64 1012.3
20260506211542 54 307 7.0 11.3 0.00 1.16 0.27 62 1012.3
20260506210057 54 318 7.0 13.0 0.00 1.16 0.27 66 1012.4
20260506204550 54 315 8.7 13.0 0.00 1.16 0.27 65 1012.2
20260506203137 54 309 6.1 13.0 0.00 1.16 0.27 65 1012.1
20260506201549 54 316 5.2 11.3 0.00 1.16 0.27 61 1012.0
20260506200048 54 360 7.0 13.0 0.00 1.16 0.27 61 1012.1
20260506194542 54 360 7.8 13.0 0.00 1.16 0.27 63 1012.2
20260506193048 54 319 10.4 14.8 0.00 1.16 0.27 64 1012.2
20260506191552 54 360 10.4 13.0 0.00 1.16 0.27 63 1012.1
20260506190050 55 320 7.0 13.0 0.00 1.16 0.27 65 1011.9
20260506184556 55 331 7.8 12.2 0.00 1.16 0.27 63 1012.1
20260506183042 55 327 9.6 13.0 0.00 1.16 0.27 64 1012.2
20260506181550 56 322 8.7 14.8 0.00 1.16 0.27 66 1012.2
20260506180054 56 313 6.1 13.0 0.00 1.16 0.27 62 1012.1
20260506174607 56 331 8.7 18.2 0.00 1.16 0.27 60 1012.0
20260506173055 56 346 6.1 15.6 0.00 1.16 0.27 57 1012.1
20260506171543 56 287 7.0 17.4 0.00 1.16 0.27 65 1012.0
20260506170048 56 192 8.7 13.9 0.00 1.16 0.27 66 1012.0
20260506164552 55 317 7.0 10.4 0.00 1.16 0.27 67 1012.0
20260506163102 54 342 7.8 13.9 0.00 1.16 0.27 74 1012.0
20260506161547 54 326 9.6 13.9 0.00 1.16 0.27 73 1012.1
20260506160051 53 22 7.8 11.3 0.00 1.16 0.27 73 1011.9
20260506154553 52 318 4.3 12.2 0.00 1.16 0.27 77 1011.6
20260506153041 52 344 7.0 11.3 0.00 1.16 0.27 77 1011.6
20260506151549 51 319 7.8 11.3 0.00 1.16 0.27 78 1011.7
20260506150051 50 9 8.7 12.2 0.00 1.16 0.27 79 1011.5
20260506144550 50 313 9.6 13.0 0.00 1.16 0.27 77 1011.5
20260506143045 49 360 3.5 11.3 0.00 1.16 0.27 77 1011.1
20260506141544 48 360 6.1 12.2 0.00 1.16 0.27 76 1010.7
20260506140042 48 360 4.3 8.7 0.00 1.16 0.27 81 1010.6
20260506134542 47 360 5.2 9.6 0.00 1.16 0.27 82 1010.6
20260506133050 47 360 2.6 7.8 0.00 1.16 0.27 85 1010.6
20260506131546 46 360 3.5 9.6 0.00 1.16 0.27 87 1010.6
20260506130050 45 360 4.3 9.6 0.00 1.16 0.27 87 1010.5
20260506124549 45 360 2.6 8.7 0.00 1.16 0.27 88 1010.3
20260506123048 45 360 4.3 8.7 0.00 1.16 0.27 89 1010.1
20260506121552 44 360 3.5 8.7 0.00 1.16 0.27 89 1009.7
20260506120048 44 360 2.6 7.8 0.00 1.16 0.27 90 1009.6
20260506114546 44 360 2.6 5.2 0.00 1.16 0.27 92 1009.1
20260506113045 44 360 1.7 8.7 0.00 1.16 0.27 92 1008.8
20260506111543 45 360 2.6 7.8 0.00 1.16 0.27 94 1008.7
20260506110042 45 360 3.5 7.8 0.00 1.16 0.27 95 1008.8
20260506104541 45 360 2.6 7.0 0.00 1.16 0.27 95 1008.5
20260506103047 45 360 2.6 10.4 0.00 1.16 0.27 95 1008.1
20260506101608 45 360 4.3 8.7 0.00 1.16 0.27 95 1008.3
20260506100045 45 360 2.6 7.0 0.01 1.16 0.27 95 1007.6
20260506094546 45 360 1.7 5.2 0.01 1.16 0.27 96 1007.1
20260506093043 45 360 0.9 2.6 0.03 1.16 0.27 95 1007.3
20260506091541 45 360 1.7 5.2 0.06 1.16 0.27 95 1007.2
20260506090100 45 360 2.6 5.2 0.06 1.15 0.26 95 1007.4
20260506084552 45 360 3.5 12.2 0.06 1.15 0.26 95 1007.8
20260506083046 45 360 3.5 11.3 0.04 1.13 0.24 95 1007.7
20260506081549 46 360 1.7 9.6 0.02 1.10 0.21 95 1007.7
20260506073051 45 360 4.3 10.4 0.08 1.09 0.20 95 1007.1
20260506071548 45 360 4.3 8.7 0.09 1.08 0.19 95 1007.4
20260506061550 46 360 3.5 10.4 0.05 0.99 0.10 95 1007.1
20260506050109 48 360 4.3 8.7 0.02 0.92 0.03 95 1007.7
20260506044544 48 360 2.6 7.8 0.01 0.90 0.01 95 1007.6
20260506043049 48 360 0.9 3.5 0.01 0.90 0.01 95 1007.5
20260506041558 48 360 0.0 1.7 0.03 0.90 0.01 95 1007.4
20260506040048 48 360 1.7 3.5 0.05 0.89 0.00 95 1007.4
20260506034550 48 0 0.9 4.3 0.08 0.89 0.89 95 1007.8
20260506033043 48 360 1.7 7.8 0.10 0.89 0.89 95 1007.9
20260506031543 48 360 2.6 8.7 0.11 0.87 0.87 94 1008.2
20260506030048 49 360 2.6 7.0 0.09 0.84 0.84 94 1008.4
20260506024546 49 360 3.5 9.6 0.09 0.81 0.81 94 1008.6
20260506023102 50 360 5.2 11.3 0.09 0.79 0.79 94 1008.2
20260506021545 50 360 4.3 10.4 0.11 0.76 0.76 94 1008.2
20260506020050 51 360 3.5 9.6 0.14 0.75 0.75 94 1008.1
20260506014547 52 360 3.5 13.9 0.15 0.72 0.72 93 1007.9
20260506013055 56 295 7.0 18.2 0.16 0.69 0.69 95 1007.5
20260506011548 58 236 1.7 4.3 0.14 0.65 0.65 95 1007.5
20260506010049 58 277 2.6 6.1 0.15 0.61 0.61 95 1007.1
20260506004541 59 221 3.5 9.6 0.16 0.57 0.57 95 1007.2
20260506003050 58 253 6.1 11.3 0.18 0.52 0.52 95 1007.2
20260506001554 58 217 5.2 11.3 0.18 0.51 0.51 94 1007.0
20260506000057 59 248 7.0 11.3 0.15 0.46 0.46 94 1007.0
20260505234549 59 231 4.3 7.8 0.11 0.40 0.40 94 1007.0
20260505233050 59 211 4.3 12.2 0.09 0.35 0.35 94 1007.0
20260505231546 59 233 6.1 11.3 0.08 0.33 0.33 93 1007.4
20260505230112 59 232 6.1 13.0 0.06 0.30 0.30 93 1007.4
20260505224548 59 258 5.2 9.6 0.07 0.29 0.29 93 1007.7
20260505223050 59 270 7.0 11.3 0.07 0.26 0.26 93 1007.8
20260505221554 59 251 5.2 11.3 0.19 0.25 0.25 92 1007.7
20260505220055 59 251 6.1 12.2 0.24 0.24 0.24 92 1007.6